Weather Service Report


061 
ASHW40 PHFO 290843
RWRHI 

WEATHER ROUNDUP FOR HAWAII
NATIONAL WEATHER SERVICE HONOLULU HI
1000 PM HST WED JUN 28 2017

THIS IS AN AUTOMATED REPORT THAT HAS NOT BEEN QUALITY CONTROLLED.

NOTE..."FAIR" INDICATES FEW OR NO CLOUDS BELOW 12,000 FEET WITH NO
SIGNIFICANT WEATHER AND/OR OBSTRUCTIONS TO VISIBILITY.

* - THESE SITES REPORT LIMITED FIELDS

HIZ001>004-290900-
KAUAI-NIIHAU-
  
CITY           SKY/WX    TMP DP  RH WIND       PRES   REMARKS
LIHUE APT      CLOUDY    77  69  76 NE17      30.14S                  
PORT ALLEN*      N/A     79 N/A N/A NE16G22     N/A                   
POIPU*           N/A     79 N/A N/A NE9G18      N/A                   
PRINCEVILLE*     N/A     77 N/A N/A E7G15       N/A                   
KOKOLE POINT*  NOT AVBL                                               
MOLOAA DAIRY*    N/A     75  68  78 E3G12       N/A                   
WAIMEA HTS*      N/A     77  63  61 E10G18      N/A                   
PUU OPAE*      NOT AVBL                                               
PUU LUA*       NOT AVBL                                               
MAKAHA RIDGE*    N/A     70  59  68 E3          N/A                   
$$

HIZ005>011-290900-
OAHU-
  
CITY           SKY/WX    TMP DP  RH WIND       PRES   REMARKS
HONOLULU       PTCLDY    78  65  63 E15       30.10R                  
KALAELOA       CLEAR     78  64  61 NE9G17    30.10R                  
KANEOHE MCB    MOCLDY    80  70  71 NE10      30.09                   
WHEELER FIELD  FAIR      75  65  71 NE6       30.10R                  
BELLOWS*         N/A    N/A N/A N/A NE18        N/A                   
KAHUKU*          N/A    N/A N/A N/A NE9G16      N/A                   
WHEELER*         N/A    N/A N/A N/A NE6G12      N/A                   
WAIANAE HARBOR   N/A    N/A N/A N/A NE8G17      N/A                   
DILLINGHAM*      N/A     73  66  78 W2          N/A                   
KAHUKU TRN*      N/A     86  77  74 W12G24      N/A  HX  97           
KAWAILOA*        N/A     72  66  83 NE10G20     N/A                   
KII*             N/A     79  68  69 E18G24      N/A                   
MAKUA RANGE*     N/A     79  66  65 W5G16       N/A                   
OAHU FOREST NW NOT AVBL                                               
SCHOFIELD BRK*   N/A     72  64  78 MISG        N/A                   
SCHOFIELD S*   NOT AVBL                                               
WAIANAE VLY*   NOT AVBL                                               
KUAOKALA*      NOT AVBL                                               
HONOULIUULI*   NOT AVBL                                               
MOKUOLOE IS*   NOT AVBL                                               
PALEHUA*       NOT AVBL                                               
WAIAWA PHB*    NOT AVBL                                               
$$

HIZ012>013-290900-
MOLOKAI-
  
CITY           SKY/WX    TMP DP  RH WIND       PRES   REMARKS
MOLOKAI AIRPT  MOCLDY    78  68  71 NE13G21   30.11R                  
KALAUPAPA      NOT AVBL                                               
MAKAPULAPAI*     N/A     77  68  73 E20G26      N/A                   
MOLOKAI 1*     NOT AVBL                                               
PUU ALII*        N/A     60  59  97 N3G23       N/A                   
$$

HIZ016-290900-
KAHOOLAWE-
  
CITY           SKY/WX    TMP DP  RH WIND       PRES   REMARKS
KAHOOLAWE*     NOT AVBL                                               
HAKIOAWA*        N/A     71  65  82 MISG        N/A                   
HONOKANAIA*      N/A     79  67  66 NE10G25   30.01R                  
KANELOA*         N/A     75  68  78 E15G26    30.14R                  
KEALIALALO*    NOT AVBL                                               
LUA MAKIKA*    NOT AVBL                                               
$$

HIZ014>015-290900-
LANAI-
  
CITY           SKY/WX    TMP DP  RH WIND       PRES   REMARKS
LANAI CITY     FAIR      71  65  81 E9        30.14R                  
LANAI 1*       NOT AVBL                                               
$$

HIZ017>028-290900-
MAUI-
  
CITY           SKY/WX    TMP DP  RH WIND       PRES   REMARKS
KAHULUI        PTCLDY    77  67  71 NE9       30.09R                  
KAPALUA-W MAUI NOT AVBL                                               
HANA AIRPORT   MOCLDY    77  68  73 NE7       30.15R                  
HANA*            N/A     79 N/A N/A NE8         N/A                   
HALEAKALA SUMM   N/A     39  36  87 E18G41      N/A  WCI  30          
MAALAEA BAY*     N/A     77 N/A N/A N20G31      N/A                   
HALEAKALA*     NOT AVBL                                               
KAUPO GAP*     NOT AVBL                                               
KULA 1*          N/A     51  40  66 E5          N/A                   
$$

HIZ023>026-290900-
BIG ISLAND OF HAWAII COAST AND LOWER SLOPES-
  
CITY           SKY/WX    TMP DP  RH WIND       PRES   REMARKS
KAILUA KONA    CLEAR     79  65  62 SE10      30.02R                  
HILO           LGT RAIN  74  69  85 N9        30.09R                  
HONOKAA*         N/A     68 N/A N/A VRB1        N/A                   
KAWAIHAE MWT*    N/A     81 N/A N/A S6G13       N/A                   
KAWAIHAE*        N/A     82 N/A N/A W7        30.01S                  
SOUTH POINT*     N/A     72 N/A N/A NW10G16     N/A                   
UPOLU AIRPORT* NOT AVBL                                               
KAMUELA*         N/A     64  63  94 NE33      30.13S                  
HAKALAU*         N/A     50  46  87 SW3G12      N/A                   
KALOKO-HONOKO*   N/A     75  64  69 E5        30.02R                  
PALI 2*          N/A     66  57  72 S14G26      N/A                   
KEALAKOMO*       N/A     79  63  57 VRB18G30    N/A                   
KAUPULEHU*     NOT AVBL                                               
KAPAPALA*        N/A     74  53  48 NE9G23      N/A                   
LOWER KAHUKU*    N/A     55  52  88 N2          N/A                   
PUHE CS*         N/A     81  59  47 NW3G12      N/A                   
PUHO CS*         N/A     77  67  72 SE2         N/A                   
PTA KEAMUKU*   NOT AVBL                                               
WAIKOLOA*        N/A     73  59  60 E12G33      N/A                   
$$

HIZ027>028-290900-
BIG ISLAND OF HAWAII INTERIOR AND SUMMMITS-
  
CITY           SKY/WX    TMP DP  RH WIND       PRES   REMARKS
BRADSHAW FIELD CLOUDY    52  44  74 SE3       30.37R                  
MK VISITOR CEN   N/A     45  30  57 W2          N/A                   
MAUNA KEA*       N/A     37 -15  10 NE37        N/A  WCI  24          
MAUNA LOA*       N/A     46 -20   5 MISG        N/A                   
MAUNA LOA 1*   NOT AVBL                                               
PTA KIPUKA*      N/A    N/A N/A N/A SE10G23     N/A                   
PTA RANGE 17*    N/A     55  41  58 E13G30      N/A                   
PTA WEST*        N/A     55  41  58 E3G20       N/A                   
NENE CABIN*      N/A    N/A N/A N/A NE8G17      N/A                   
AHUMOA*        NOT AVBL                                               
PTA PORTABLE*  NOT AVBL                                               
PUU MALI*        N/A     55 N/A N/A E17G36      N/A                   
$$

HIC003-290900-
NORTHWEST ISLANDS-
  
CITY           SKY/WX    TMP DP  RH WIND       PRES   REMARKS
MIDWAY ISLAND    N/A     77  72  83 E9        30.16R                  
MIDWAY NOS*      N/A     75 N/A N/A MISG      30.15R                  
FRENCH FRIGATE NOT AVBL                                               
$$

PHZ110>124-180-290900-
BUOY REPORTS
  
STATION/POSITION TIME  TEMP    WIND        PRES    WAVE   SWELL
                       AIR SEA DIR/SP/G            HT/PER HT/DIR
                 (UTC) (F)     (DEG/KT/KT) (MB)    (FT/S) (FT/D)
BUOY 51001       0820   79 81   80/ 14/ 17 1021.3
BUOY 51101       0750   79 80   80/ 14/ 17 1021.3R   5/11   3/ 60
BUOY 51100       NOT AVBL
BUOY 51002       0820   79 79   60/ 17/ 21 1016.4
BUOY 51003       0750   80 80   40/ 14/ 17 1017.4R   8/ 8   7/ 90
BUOY 51004       0750      79   50/ 17/ 19 1015.8R   7/ 8   5/ 70
BARBERS PT BUOY  NOT AVBL
WAIMEA BAY BUOY  0802      78                N/A     5/10   2/ 20
KAILUA BAY BUOY  0804      80                N/A     7/11   2/ 40
LANAI BUOY       NOT AVBL
BARBERS PT 2     NOT AVBL
PAUWELA MAUI     0809      78                N/A     7/10   2/ 30
HILO             0827      79                N/A     7/ 7   2/ 50
KANEOHE BAY BUOY 0825      79                N/A     6/11   2/ 40
HANALEI KAUAI    0822      80                N/A     5/10   2/ 60
KAHULUI HARBOR   0818   78 80   50/  7/ 16 1019.4
HONOLULU HARBOR  0818   79 80   60/  8/ 12 1020.0
KILO NALU        NOT AVBL
HILO HARBOR      0818   77 79  350/ 10/ 14 1018.8
MOKUOLOE         0736   79 82   70/ 12/ 15 1019.7R
NAWILIWILI       0818   78      50/  9/ 14 1020.1
WHOTS BUOY       NOT AVBL
BUOY 51028       NOT AVBL
$$

......................KEY........................................
  SKY/WX - SKY CONDITIONS/PRESENT WEATHER
  TMP    - TEMPERATURE IN FAHRENHEIT
  DWPT   - DEWPOINT IN FAHRENHEIT
  RH     - RELATIVE HUMIDITY IN PERCENT
  WIND   - DIRECTION AND SPEED /MPH FOR ISLANDS...KTS FOR BUOYS/
  PRES   - MEAN SEA LEVEL PRESSURE IN INCHES OF HG
  VSB    - VISIBILITY IN MILES
  HX     - HEAT INDEX
  WCI    - WIND CHILL INDEX
  VRB    - VARIABLE WIND DIRECTION
  N/A    - NOT AVAILABLE
  

Return to Home page


Western Regional Climate Center, wrcc@dri.edu